[[{"header":{"parameterUnit":"m.s-1","parameterCategory":2,"la1":30.2991,"la2":30.254,"lo1":-89.0895,"lo2":-89.0444,"dx":0.0017,"dy":0.0017,"nx":28,"ny":28,"refTime":"2022-11-21T15:00:00:Z","depth":"0","parameterNumber":2,"parameterNumberName":"U-component_of_CURRENTS"},"data":[0,0,0,0,0,0,0,0,0,0,0,0,0,0,0,0,0,0,0,0,0,0,0,0,0,0,0,0,0,0,0,0,0,0,0,0,0,0,0,0,0,0,0,0,0,0,0,0,0,0,0,0,0,0,0,0,0,0,0.1715,0.1715,0,0.1744,0.1744,0.1744,0.1746,0.1746,0.1745,0.1745,0.1733,0.1732,0.1732,0,0,0,0,0,0,0,0,0,0,0,0,0,0.1666,0.1667,0.1715,0.1715,0.1716,0.1744,0.1744,0.1744,0.1746,0.1746,0.1745,0.1745,0.1733,0.1732,0.1732,0,0,0,0,0,0,0,0,0,0,0,0,0,0.1689,0.1667,0.1715,0.1721,0.1722,0.1744,0.1744,0.1745,0.1746,0.1746,0.1745,0.1745,0.1733,0.1732,0.1732,0.1737,0,0,0.1732,0.1731,0,0,0,0,0,0,0,0,0.1688,0.1691,0.172,0.1721,0.1722,0.1742,0.1723,0.174,0.1746,0.1735,0.1745,0.1745,0.1733,0.1733,0.1738,0.1736,0.1736,0.1732,0.1731,0.1731,0.1731,0,0,0,0,0,0,0,0.1686,0.1689,0.1725,0.172,0.1722,0.1724,0.1727,0.1726,0.1734,0.1736,0.1737,0.1742,0.1733,0.1738,0.1737,0.1736,0.1732,0.1731,0.1731,0.1731,0.1754,0.1755,0,0,0,0,0,0,0.1686,0.1688,0.1724,0.1726,0.1705,0.1726,0.1729,0.1735,0.1735,0.1735,0.1743,0.1742,0.1738,0.1737,0.1737,0.176,0.1731,0.1731,0.1731,0.1753,0.1754,0.1755,0,0,0,0,0,0,0.1685,0.1689,0.1723,0.1709,0.1713,0.1727,0.1734,0.1736,0.1743,0.174,0.174,0.1749,0.1738,0.1737,0.1742,0.1758,0.1731,0.1731,0.1752,0.1754,0.1755,0.1794,0,0,0,0,0,0,0.1683,0.1688,0.1692,0.1709,0.1714,0.1741,0.1734,0.1736,0.1748,0.1748,0.1745,0.1744,0.1738,0.1742,0.1741,0.1758,0.1731,0.1751,0.1753,0.1754,0.1792,0.1797,0.1801,0,0,0,0,0,0.1681,0.1688,0.1692,0.1696,0.1719,0.1742,0.1745,0.1752,0.1748,0.1756,0.1754,0.1744,0.175,0.1742,0.1741,0.1758,0.1751,0.1752,0.1754,0.179,0.1796,0.1801,0,0,0,0,0,0,0.1666,0.1689,0.1694,0.1706,0.1725,0.1743,0.1751,0.1755,0.1761,0.1759,0.1751,0.175,0.1763,0.1754,0.1745,0.1769,0.175,0.1751,0.1778,0.1783,0.1787,0.1795,0.173,0,0,0,0,0,0.1666,0.1679,0.1701,0.1712,0.1722,0.1737,0.1746,0.1754,0.1762,0.1764,0.1763,0.1763,0.1769,0.177,0.1772,0.1782,0.1789,0.1793,0.1797,0.1801,0.1807,0.1829,0.1836,0.176,0.176,0.176,0,0,0.1661,0.1678,0.1683,0.171,0.1724,0.1744,0.1741,0.176,0.1777,0.1761,0.1777,0.1777,0.1776,0.1791,0.1796,0.1785,0.1829,0.1803,0.1806,0.181,0.1832,0.1839,0.1846,0.1762,0.1761,0.1761,0,0,0.1665,0.1677,0.169,0.1709,0.1737,0.175,0.1757,0.1778,0.1787,0.1804,0.18,0.1811,0.1814,0.1822,0.1825,0.1853,0.1852,0.1853,0.1879,0.1901,0.1908,0.1913,0.1944,0.1952,0.1853,0.1853,0.1853,0,0.1657,0.168,0.1697,0.172,0.1737,0.1754,0.1775,0.1791,0.181,0.1821,0.1812,0.1837,0.1832,0.1859,0.187,0.1864,0.1878,0.186,0.1907,0.1913,0.1918,0.1948,0.1957,0.1855,0.1855,0.1855,0.1855,0,0.1675,0.1693,0.1705,0.1739,0.1762,0.1782,0.1811,0.1829,0.1839,0.1854,0.1882,0.1883,0.1898,0.19,0.1893,0.1931,0.1931,0.1912,0.1895,0.1928,0.1958,0.1966,0.1858,0.1858,0.1857,0.1856,0,0,0.1649,0.1705,0.1707,0.1729,0.1774,0.1793,0.1829,0.1865,0.1889,0.1906,0.1938,0.1952,0.1955,0.1959,0.1956,0.1973,0.2023,0.196,0.196,0.1993,0.2084,0.2108,0.2119,0.2013,0.2015,0.2016,0.2094,0,0.1655,0.1696,0.1725,0.1764,0.1789,0.1823,0.1855,0.1891,0.1918,0.1952,0.1967,0.1993,0.1978,0.199,0.2007,0.2021,0.2045,0.2004,0.2045,0.2046,0.2065,0.2129,0.2089,0.2157,0.2102,0.2103,0.2104,0,0.1658,0.169,0.1727,0.1783,0.1797,0.1822,0.188,0.191,0.1964,0.1989,0.2023,0.2038,0.2079,0.2051,0.2104,0.2081,0.2089,0.2095,0.2097,0.2111,0.2086,0.2112,0.2174,0.2137,0.2117,0.2116,0.2115,0,0.1633,0.1688,0.1718,0.1737,0.1803,0.1825,0.1857,0.1916,0.1953,0.2012,0.2049,0.2093,0.2123,0.2143,0.2169,0.214,0.2226,0.2183,0.2215,0.2217,0.2186,0.2183,0.2218,0.222,0.222,0.2219,0.2219,0,0.1626,0.1647,0.1706,0.1723,0.1755,0.181,0.185,0.1891,0.1966,0.2009,0.2061,0.2115,0.2147,0.2201,0.2204,0.2257,0.226,0.2244,0.2246,0.2201,0.2198,0.2166,0.214,0.2222,0.2222,0.2221,0.2221,0,0.1588,0.1629,0.1661,0.1725,0.1742,0.1762,0.1837,0.1876,0.195,0.2012,0.2038,0.2149,0.2229,0.227,0.2319,0.2312,0.2304,0.2358,0.2313,0.231,0.2291,0.2268,0.2243,0.2162,0.2406,0.2407,0.2408,0,0.1571,0.1587,0.1642,0.166,0.1685,0.1725,0.1759,0.1847,0.1897,0.2029,0.2064,0.2183,0.226,0.2377,0.2408,0.2454,0.2358,0.2419,0.235,0.2313,0.2288,0.2196,0.212,0.2327,0.2327,0.2328,0.2328,0,0.1537,0.1555,0.1583,0.1616,0.1648,0.1684,0.1741,0.178,0.1885,0.1962,0.2081,0.2164,0.2315,0.2378,0.2459,0.2467,0.2333,0.2425,0.239,0.2248,0.2145,0.206,0.2259,0.233,0.2329,0.2329,0.2329,0.2329,0.1501,0.1506,0.1543,0.1569,0.1603,0.1634,0.1644,0.1728,0.1802,0.1901,0.2029,0.2138,0.2293,0.2428,0.2429,0.2432,0.2369,0.2361,0.2344,0.226,0.2156,0.2377,0.2445,0.2446,0.2446,0.2446,0.2447,0,0.1454,0.1473,0.1498,0.1522,0.1533,0.1574,0.1627,0.1639,0.1695,0.183,0.1934,0.2127,0.2227,0.233,0.2415,0.2353,0.2226,0.2297,0.2143,0.2073,0.2287,0.2258,0.2285,0.2285,0.2285,0.2285,0.2285,0.2285,0.1431,0.1436,0.1451,0.1445,0.1463,0.1452,0.1466,0.1505,0.1587,0.1713,0.1839,0.197,0.2233,0.2418,0.2406,0.2336,0.2115,0.2081,0.2018,0.2178,0.2181,0.2184,0.215,0.2154,0.2154,0.1722,0.1719,0.1717]},{"header":{"parameterUnit":"m.s-1","parameterCategory":2,"la1":30.2991,"la2":30.254,"lo1":-89.0895,"lo2":-89.0444,"dx":0.0017,"dy":0.0017,"nx":28,"ny":28,"refTime":"2022-11-21T15:00:00:Z","depth":"0","parameterNumber":3,"parameterNumberName":"V-component_of_CURRENTS"},"data":[0,0,0,0,0,0,0,0,0,0,0,0,0,0,0,0,0,0,0,0,0,0,0,0,0,0,0,0,0,0,0,0,0,0,0,0,0,0,0,0,0,0,0,0,0,0,0,0,0,0,0,0,0,0,0,0,0,0,-0.0385,-0.0386,0,-0.0474,-0.0475,-0.0476,-0.0533,-0.0534,-0.0534,-0.0534,-0.0604,-0.0605,-0.0607,0,0,0,0,0,0,0,0,0,0,0,0,0,-0.0337,-0.0337,-0.0385,-0.0386,-0.0387,-0.0474,-0.0475,-0.0477,-0.0533,-0.0534,-0.0534,-0.0534,-0.0603,-0.0605,-0.0607,0,0,0,0,0,0,0,0,0,0,0,0,0,-0.0388,-0.0338,-0.0385,-0.0424,-0.0428,-0.0473,-0.0475,-0.0477,-0.0533,-0.0534,-0.0534,-0.0534,-0.0602,-0.0605,-0.0608,-0.0621,0,0,-0.0616,-0.0617,0,0,0,0,0,0,0,0,-0.0385,-0.039,-0.0417,-0.0421,-0.0426,-0.049,-0.0484,-0.0523,-0.0533,-0.0496,-0.0534,-0.0534,-0.0562,-0.0568,-0.0589,-0.0625,-0.0628,-0.0616,-0.0618,-0.0619,-0.062,0,0,0,0,0,0,0,-0.0381,-0.0387,-0.0423,-0.0418,-0.0423,-0.0461,-0.0468,-0.0492,-0.0529,-0.05,-0.0503,-0.0508,-0.0565,-0.0586,-0.0591,-0.0629,-0.0616,-0.0618,-0.062,-0.0621,-0.0693,-0.0693,0,0,0,0,0,0,-0.036,-0.0383,-0.042,-0.0426,-0.0402,-0.0461,-0.0469,-0.0472,-0.053,-0.0538,-0.0508,-0.0511,-0.0581,-0.0588,-0.0593,-0.0609,-0.0619,-0.0621,-0.0623,-0.0692,-0.0693,-0.0693,0,0,0,0,0,0,-0.0359,-0.0363,-0.0417,-0.0404,-0.0413,-0.0461,-0.0464,-0.0473,-0.0493,-0.0536,-0.0544,-0.0517,-0.0582,-0.059,-0.0613,-0.0612,-0.0622,-0.0625,-0.0692,-0.0693,-0.0693,-0.0643,0,0,0,0,0,0,-0.0357,-0.0362,-0.0359,-0.0402,-0.0413,-0.0438,-0.0464,-0.0475,-0.0494,-0.0499,-0.0546,-0.0553,-0.0583,-0.0609,-0.0616,-0.0616,-0.0627,-0.0692,-0.0692,-0.0693,-0.0644,-0.0642,-0.064,0,0,0,0,0,-0.0355,-0.0348,-0.0359,-0.0363,-0.0407,-0.0438,-0.0447,-0.0484,-0.0494,-0.0502,-0.0533,-0.0552,-0.0618,-0.0611,-0.0619,-0.062,-0.0691,-0.0692,-0.0693,-0.0645,-0.0642,-0.064,0,0,0,0,0,0,-0.0326,-0.0354,-0.0367,-0.0369,-0.0397,-0.0446,-0.0454,-0.0478,-0.0511,-0.0511,-0.0553,-0.0562,-0.0584,-0.0609,-0.0601,-0.0644,-0.0659,-0.0661,-0.062,-0.0617,-0.0615,-0.0596,-0.0629,0,0,0,0,0,-0.0316,-0.0319,-0.0354,-0.0355,-0.0365,-0.0408,-0.0425,-0.0448,-0.0481,-0.0496,-0.0531,-0.0566,-0.0594,-0.061,-0.064,-0.066,-0.0675,-0.0668,-0.0666,-0.0663,-0.0654,-0.0681,-0.0679,-0.0695,-0.0695,-0.0695,0,0,-0.0305,-0.032,-0.0322,-0.0349,-0.0374,-0.0387,-0.0419,-0.0437,-0.0451,-0.0496,-0.0524,-0.0556,-0.0597,-0.0623,-0.0635,-0.0642,-0.0666,-0.0664,-0.0662,-0.0654,-0.0681,-0.0679,-0.0678,-0.0696,-0.0696,-0.0696,0,0,-0.0282,-0.0296,-0.0291,-0.0311,-0.0338,-0.0366,-0.0367,-0.0412,-0.0434,-0.0462,-0.0498,-0.0527,-0.0575,-0.0606,-0.0627,-0.0629,-0.0651,-0.0641,-0.0614,-0.064,-0.0638,-0.0637,-0.0643,-0.0642,-0.0641,-0.0641,-0.0641,0,-0.0266,-0.0265,-0.0295,-0.0297,-0.0307,-0.0351,-0.035,-0.0382,-0.0431,-0.0443,-0.0462,-0.0531,-0.0568,-0.0594,-0.06,-0.0622,-0.0632,-0.0618,-0.0634,-0.0634,-0.0633,-0.064,-0.064,-0.0639,-0.0639,-0.064,-0.064,0,-0.0243,-0.0244,-0.0241,-0.0257,-0.0274,-0.0279,-0.0319,-0.0341,-0.0371,-0.0403,-0.0436,-0.0489,-0.0528,-0.055,-0.0577,-0.0594,-0.06,-0.0625,-0.0636,-0.0628,-0.0636,-0.0637,-0.0636,-0.0637,-0.0637,-0.0638,0,0,-0.0202,-0.022,-0.0219,-0.0216,-0.0251,-0.0259,-0.0279,-0.0308,-0.0312,-0.0367,-0.0376,-0.044,-0.0467,-0.0492,-0.0532,-0.0559,-0.0569,-0.0586,-0.0589,-0.058,-0.0608,-0.0604,-0.0605,-0.0595,-0.0595,-0.0595,-0.061,0,-0.0173,-0.0161,-0.0182,-0.0173,-0.0169,-0.021,-0.0222,-0.0254,-0.0289,-0.0312,-0.0369,-0.0394,-0.0445,-0.0458,-0.0494,-0.0551,-0.0572,-0.0562,-0.0626,-0.0628,-0.0616,-0.0606,-0.06,-0.0611,-0.0611,-0.0611,-0.0611,0,-0.0143,-0.0139,-0.0121,-0.0124,-0.0125,-0.0129,-0.0147,-0.0165,-0.0211,-0.0235,-0.0275,-0.0318,-0.0367,-0.0409,-0.0494,-0.0484,-0.0537,-0.0582,-0.0584,-0.0597,-0.0626,-0.0623,-0.0614,-0.0758,-0.0614,-0.0613,-0.0613,0,-0.0096,-0.0094,-0.0075,-0.0078,-0.0093,-0.009,-0.0102,-0.0139,-0.014,-0.0184,-0.0185,-0.0256,-0.0281,-0.0363,-0.0461,-0.0476,-0.0545,-0.0582,-0.0624,-0.0623,-0.0639,-0.064,-0.0767,-0.0632,-0.0632,-0.0632,-0.0632,0,-0.0057,-0.004,-0.0049,-0.0038,-0.0014,-0.0041,-0.0024,-0.0049,-0.0066,-0.0053,-0.0137,-0.0136,-0.0271,-0.033,-0.0428,-0.0521,-0.0522,-0.0608,-0.0627,-0.0621,-0.062,-0.0763,-0.0842,-0.0632,-0.0632,-0.0632,-0.0632,0,-0.0012,-0.0018,0.0007,0.0007,0.0009,0.0025,0.0032,0.0046,0.002,0.0036,0.0031,-0.0041,-0.012,-0.0246,-0.0373,-0.0467,-0.0642,-0.0596,-0.0568,-0.0583,-0.0761,-0.0836,-0.098,-0.1038,-0.0645,-0.0645,-0.0645,0,0.0013,0.0029,0.0045,0.0064,0.0067,0.0085,0.0102,0.0088,0.011,0.01,0.0121,0.0055,0.0021,-0.016,-0.0338,-0.0493,-0.0635,-0.0594,-0.0632,-0.0763,-0.0861,-0.0933,-0.0976,-0.063,-0.063,-0.063,-0.063,0,0.006,0.0064,0.0083,0.0121,0.0147,0.0175,0.0203,0.0237,0.0231,0.0252,0.0275,0.0253,0.0082,-0.0076,-0.0298,-0.0423,-0.0703,-0.0597,-0.0751,-0.0871,-0.094,-0.1006,-0.062,-0.0629,-0.0629,-0.0629,-0.063,-0.063,0.0098,0.0118,0.0143,0.0178,0.0212,0.0261,0.0293,0.034,0.039,0.0434,0.0408,0.0402,0.0153,-0.0151,-0.0338,-0.0692,-0.0702,-0.0803,-0.0882,-0.0943,-0.1007,-0.0605,-0.0628,-0.0628,-0.0628,-0.0628,-0.0628,0,0.0143,0.016,0.0198,0.024,0.0284,0.0291,0.0356,0.0398,0.0473,0.0527,0.0556,0.0432,0.0128,-0.0203,-0.0664,-0.0926,-0.1043,-0.1085,-0.1204,-0.1234,-0.0891,-0.09,-0.096,-0.096,-0.096,-0.096,-0.0959,-0.0959,0.0168,0.0209,0.0221,0.0291,0.0322,0.0381,0.042,0.0492,0.0545,0.06,0.0601,0.0576,0.0291,-0.0515,-0.1123,-0.1264,-0.1472,-0.1509,-0.1614,-0.1405,-0.1385,-0.1367,-0.1395,-0.1558,-0.1559,-0.1928,-0.1931,-0.1934]}],[{"header":{"parameterUnit":"m.s-1","parameterCategory":2,"la1":30.2991,"la2":30.254,"lo1":-89.0895,"lo2":-89.0444,"dx":0.0017,"dy":0.0017,"nx":28,"ny":28,"refTime":"2022-11-21T15:00:00:Z","depth":"2","parameterNumber":2,"parameterNumberName":"U-component_of_CURRENTS"},"data":[0,0,0,0,0,0,0,0,0,0,0,0,0,0,0,0,0,0,0,0,0,0,0,0,0,0,0,0,0,0,0,0,0,0,0,0,0,0,0,0,0,0,0,0,0,0,0,0,0,0,0,0,0,0,0,0,0,0,0.1707,0.1707,0,0.1745,0.1745,0.1746,0.1756,0.1756,0.1755,0.1755,0.1755,0.1755,0.1755,0,0,0,0,0,0,0,0,0,0,0,0,0,0.1656,0.1657,0.1707,0.1707,0.1708,0.1745,0.1745,0.1746,0.1756,0.1756,0.1755,0.1755,0.1755,0.1755,0.1755,0,0,0,0,0,0,0,0,0,0,0,0,0,0.1684,0.1657,0.1707,0.1718,0.1719,0.1745,0.1745,0.1746,0.1756,0.1756,0.1755,0.1755,0.1755,0.1755,0.1755,0.1761,0,0,0.1756,0.1756,0,0,0,0,0,0,0,0,0.1682,0.1685,0.1716,0.1717,0.1719,0.1746,0.1727,0.1749,0.1756,0.1741,0.1755,0.1755,0.1749,0.175,0.1757,0.1761,0.1761,0.1756,0.1756,0.1756,0.1756,0,0,0,0,0,0,0,0.168,0.1684,0.1721,0.1716,0.1718,0.1726,0.1729,0.1732,0.1744,0.1742,0.1743,0.1749,0.1749,0.1756,0.1757,0.1761,0.1756,0.1756,0.1756,0.1756,0.1791,0.1792,0,0,0,0,0,0,0.1677,0.1682,0.172,0.1722,0.17,0.1727,0.1731,0.1737,0.1745,0.1747,0.1749,0.1749,0.1756,0.1756,0.1757,0.1785,0.1756,0.1756,0.1756,0.179,0.1791,0.1792,0,0,0,0,0,0,0.1676,0.168,0.1718,0.1704,0.1709,0.1728,0.1735,0.1738,0.1749,0.1751,0.1752,0.1758,0.1756,0.1756,0.1766,0.1784,0.1756,0.1756,0.179,0.1791,0.1792,0.1829,0,0,0,0,0,0,0.1674,0.1679,0.1684,0.1703,0.171,0.1739,0.1735,0.1739,0.1753,0.1753,0.1759,0.1758,0.1756,0.1766,0.1766,0.1784,0.1756,0.1788,0.179,0.1792,0.1826,0.1831,0.1835,0,0,0,0,0,0.1672,0.1679,0.1684,0.1688,0.1715,0.1739,0.1743,0.1755,0.1753,0.1763,0.1766,0.1758,0.1776,0.1767,0.1767,0.1785,0.1788,0.179,0.1791,0.1824,0.183,0.1835,0,0,0,0,0,0,0.1659,0.1682,0.1687,0.1701,0.1721,0.1741,0.1752,0.1758,0.177,0.1769,0.1767,0.1767,0.1785,0.1779,0.1768,0.18,0.1782,0.1784,0.1807,0.1812,0.1816,0.1823,0.1757,0,0,0,0,0,0.1659,0.1671,0.1694,0.1706,0.1716,0.1734,0.1745,0.1755,0.1768,0.1773,0.1777,0.1782,0.1793,0.1796,0.1804,0.1817,0.1824,0.183,0.1834,0.1838,0.1844,0.1867,0.1874,0.1799,0.1798,0.1798,0,0,0.1655,0.1672,0.1677,0.1704,0.1719,0.1741,0.174,0.1761,0.1781,0.177,0.1794,0.1797,0.1801,0.1821,0.1828,0.1817,0.1865,0.184,0.1843,0.1848,0.187,0.1877,0.1884,0.18,0.18,0.1799,0,0,0.1659,0.1672,0.1685,0.1705,0.1733,0.1748,0.1755,0.178,0.1793,0.1815,0.1816,0.183,0.1842,0.1853,0.1859,0.189,0.1888,0.1891,0.1917,0.1939,0.1946,0.1951,0.1979,0.1987,0.1891,0.1891,0.1891,0,0.1653,0.1675,0.1693,0.1715,0.1732,0.1752,0.1772,0.1793,0.1819,0.1833,0.1826,0.1861,0.186,0.1892,0.1905,0.19,0.1913,0.1896,0.1945,0.1951,0.1956,0.1983,0.1991,0.1893,0.1893,0.1893,0.1893,0,0.1671,0.169,0.1701,0.1735,0.1757,0.1779,0.181,0.1834,0.1849,0.1867,0.1902,0.1908,0.1928,0.1932,0.1928,0.1968,0.1966,0.195,0.1932,0.1966,0.1992,0.2,0.1896,0.1895,0.1895,0.1894,0,0,0.1648,0.1701,0.1704,0.1725,0.1769,0.179,0.183,0.187,0.1899,0.1922,0.1958,0.198,0.1984,0.1991,0.1991,0.2008,0.2057,0.1997,0.1997,0.2024,0.2116,0.211,0.2118,0.2049,0.2051,0.2052,0.2123,0,0.1654,0.1695,0.1722,0.1761,0.1785,0.1821,0.1857,0.1898,0.193,0.197,0.1989,0.2021,0.2007,0.2021,0.2039,0.2056,0.2079,0.204,0.2079,0.208,0.2071,0.2127,0.1967,0.2016,0.213,0.2132,0.2132,0,0.1658,0.1688,0.1724,0.178,0.1793,0.182,0.1882,0.1918,0.198,0.2007,0.2045,0.2063,0.2107,0.2081,0.2136,0.2113,0.2121,0.2127,0.213,0.2116,0.2089,0.1999,0.2026,0.2145,0.2144,0.2143,0.2143,0,0.1634,0.1688,0.1716,0.1735,0.18,0.1825,0.186,0.1924,0.1964,0.2032,0.207,0.2117,0.2149,0.217,0.2197,0.217,0.2254,0.2214,0.2217,0.2217,0.2085,0.2071,0.2249,0.2249,0.2249,0.2249,0.2249,0,0.1628,0.1649,0.1706,0.1722,0.1756,0.181,0.1854,0.1901,0.1978,0.2025,0.2082,0.2136,0.2173,0.2226,0.223,0.2266,0.2285,0.2241,0.2241,0.2094,0.2081,0.2188,0.218,0.2252,0.2251,0.225,0.225,0,0.1593,0.1631,0.1663,0.1726,0.1743,0.1765,0.1841,0.1883,0.1961,0.2027,0.2055,0.2166,0.2242,0.2284,0.2333,0.2314,0.2341,0.2343,0.2179,0.2158,0.2277,0.227,0.2351,0.2352,0.2352,0.2353,0.2353,0,0.1577,0.1592,0.1646,0.1663,0.1688,0.173,0.1765,0.1855,0.1905,0.2042,0.2076,0.2191,0.2248,0.2347,0.2358,0.2385,0.2388,0.2232,0.2146,0.23,0.2291,0.2283,0.2276,0.1985,0.1982,0.198,0.1978,0,0.1545,0.1562,0.159,0.1621,0.1653,0.1689,0.1747,0.1784,0.1892,0.1963,0.2072,0.2135,0.2252,0.2228,0.228,0.2265,0.2216,0.2189,0.2396,0.1991,0.1962,0.1951,0.1954,0.1958,0.196,0.1962,0.1963,0.1964,0.1512,0.1516,0.1551,0.1577,0.161,0.1638,0.1648,0.1724,0.179,0.1864,0.1985,0.2016,0.2071,0.208,0.2051,0.2036,0.2172,0.2052,0.2055,0.2061,0.2014,0.1987,0.198,0.1982,0.1984,0.1985,0.1987,0,0.1466,0.1484,0.1509,0.153,0.1539,0.1581,0.1631,0.1629,0.1668,0.1748,0.1816,0.1713,0.1728,0.1778,0.1741,0.1769,0.1711,0.1684,0.1581,0.1605,0.1626,0.155,0.1396,0.1394,0.1392,0.139,0,0,0.1444,0.1447,0.1461,0.1452,0.147,0.1456,0.1467,0.1478,0.1516,0.1502,0.1501,0.1632,0.1724,0.1516,0.1529,0.145,0.15,0.1398,0.1883,0.1785,0.1802,0.1865,0.1782,0,0,0,0,0]},{"header":{"parameterUnit":"m.s-1","parameterCategory":2,"la1":30.2991,"la2":30.254,"lo1":-89.0895,"lo2":-89.0444,"dx":0.0017,"dy":0.0017,"nx":28,"ny":28,"refTime":"2022-11-21T15:00:00:Z","depth":"2","parameterNumber":3,"parameterNumberName":"V-component_of_CURRENTS"},"data":[0,0,0,0,0,0,0,0,0,0,0,0,0,0,0,0,0,0,0,0,0,0,0,0,0,0,0,0,0,0,0,0,0,0,0,0,0,0,0,0,0,0,0,0,0,0,0,0,0,0,0,0,0,0,0,0,0,0,-0.0209,-0.0209,0,-0.0269,-0.027,-0.027,-0.0322,-0.0323,-0.0323,-0.0323,-0.0386,-0.0387,-0.0388,0,0,0,0,0,0,0,0,0,0,0,0,0,-0.0175,-0.0175,-0.0209,-0.0209,-0.021,-0.0269,-0.027,-0.0271,-0.0322,-0.0323,-0.0323,-0.0324,-0.0385,-0.0387,-0.0388,0,0,0,0,0,0,0,0,0,0,0,0,0,-0.0209,-0.0175,-0.0209,-0.0241,-0.0245,-0.0269,-0.027,-0.0271,-0.0322,-0.0323,-0.0323,-0.0324,-0.0385,-0.0386,-0.0388,-0.0388,0,0,-0.0394,-0.0395,0,0,0,0,0,0,0,0,-0.0207,-0.021,-0.0236,-0.0239,-0.0243,-0.0287,-0.0281,-0.0309,-0.0322,-0.0294,-0.0323,-0.0324,-0.0351,-0.0356,-0.0368,-0.039,-0.0393,-0.0394,-0.0395,-0.0396,-0.0397,0,0,0,0,0,0,0,-0.0205,-0.0208,-0.0234,-0.0236,-0.0241,-0.0265,-0.0271,-0.0287,-0.032,-0.0297,-0.03,-0.0304,-0.0353,-0.0366,-0.037,-0.0394,-0.0394,-0.0396,-0.0397,-0.0398,-0.0456,-0.0456,0,0,0,0,0,0,-0.0191,-0.0206,-0.0232,-0.0236,-0.0224,-0.0265,-0.0271,-0.0274,-0.032,-0.0327,-0.0303,-0.0306,-0.0363,-0.0368,-0.0372,-0.0391,-0.0396,-0.0398,-0.0399,-0.0456,-0.0456,-0.0457,0,0,0,0,0,0,-0.019,-0.0193,-0.023,-0.0221,-0.0227,-0.0265,-0.0267,-0.0274,-0.0291,-0.0325,-0.0332,-0.0313,-0.0363,-0.037,-0.039,-0.0393,-0.0399,-0.0401,-0.0455,-0.0456,-0.0456,-0.0416,0,0,0,0,0,0,-0.0189,-0.0192,-0.0191,-0.022,-0.0227,-0.0243,-0.0267,-0.0275,-0.0291,-0.0296,-0.0335,-0.0341,-0.0364,-0.0387,-0.0392,-0.0395,-0.0402,-0.0455,-0.0455,-0.0456,-0.0417,-0.0415,-0.0414,0,0,0,0,0,-0.0187,-0.0181,-0.019,-0.0194,-0.0224,-0.0242,-0.0248,-0.0279,-0.0291,-0.0296,-0.0324,-0.034,-0.0396,-0.0389,-0.0394,-0.0398,-0.0454,-0.0455,-0.0456,-0.0418,-0.0416,-0.0414,0,0,0,0,0,0,-0.0165,-0.0186,-0.0197,-0.0198,-0.0218,-0.025,-0.0256,-0.0275,-0.0301,-0.0306,-0.0339,-0.0347,-0.0368,-0.0389,-0.038,-0.042,-0.043,-0.0432,-0.0399,-0.0397,-0.0396,-0.0381,-0.0404,0,0,0,0,0,-0.0158,-0.016,-0.0185,-0.0185,-0.0192,-0.0223,-0.0235,-0.0254,-0.0279,-0.0292,-0.0322,-0.0353,-0.0375,-0.039,-0.0414,-0.043,-0.0444,-0.0439,-0.0438,-0.0436,-0.043,-0.0457,-0.0457,-0.046,-0.046,-0.046,0,0,-0.015,-0.0161,-0.0162,-0.0181,-0.0198,-0.0204,-0.0232,-0.0245,-0.0255,-0.0293,-0.0317,-0.0345,-0.0378,-0.04,-0.0411,-0.0418,-0.0443,-0.0437,-0.0436,-0.043,-0.0458,-0.0457,-0.0457,-0.046,-0.046,-0.046,0,0,-0.013,-0.0142,-0.0137,-0.015,-0.017,-0.019,-0.0191,-0.0225,-0.0245,-0.0267,-0.0298,-0.0325,-0.0365,-0.039,-0.0406,-0.0409,-0.0431,-0.0423,-0.0404,-0.043,-0.0429,-0.0429,-0.044,-0.0441,-0.0424,-0.0424,-0.0424,0,-0.0117,-0.0115,-0.0138,-0.0137,-0.0143,-0.0179,-0.0175,-0.0199,-0.0239,-0.025,-0.0271,-0.0329,-0.0359,-0.0379,-0.0388,-0.0404,-0.0418,-0.0405,-0.0426,-0.0426,-0.0427,-0.0438,-0.0439,-0.0422,-0.0423,-0.0423,-0.0423,0,-0.0095,-0.0095,-0.0091,-0.0101,-0.0112,-0.0114,-0.0145,-0.0164,-0.0193,-0.0219,-0.025,-0.0295,-0.0329,-0.0348,-0.037,-0.039,-0.0398,-0.0417,-0.0425,-0.0424,-0.0436,-0.0438,-0.042,-0.042,-0.0421,-0.0421,0,0,-0.0062,-0.0073,-0.0072,-0.0067,-0.0092,-0.0094,-0.0111,-0.0131,-0.0136,-0.0187,-0.0196,-0.0252,-0.028,-0.03,-0.0335,-0.0364,-0.0383,-0.0391,-0.0393,-0.039,-0.0429,-0.0417,-0.0418,-0.0406,-0.0407,-0.0407,-0.0432,0,-0.0036,-0.002,-0.0036,-0.0022,-0.0015,-0.0049,-0.0057,-0.0083,-0.0114,-0.0136,-0.0189,-0.0212,-0.026,-0.0275,-0.0312,-0.0364,-0.0389,-0.0373,-0.044,-0.0442,-0.0423,-0.0421,-0.0397,-0.0417,-0.0435,-0.0435,-0.0435,0,-0.0008,0.0,0.002,0.0023,0.0024,0.0023,0.0011,-0.0003,-0.0043,-0.0068,-0.0107,-0.0148,-0.0196,-0.0237,-0.0323,-0.0311,-0.0365,-0.0408,-0.041,-0.0413,-0.0434,-0.0425,-0.0421,-0.044,-0.0439,-0.0439,-0.0439,0,0.0033,0.0041,0.0061,0.0061,0.0055,0.0057,0.0049,0.0018,0.0019,-0.0025,-0.0027,-0.0097,-0.0123,-0.0206,-0.03,-0.0314,-0.0388,-0.0418,-0.0454,-0.0453,-0.0453,-0.0451,-0.0473,-0.0472,-0.0472,-0.0472,-0.0472,0,0.0069,0.0087,0.0083,0.0095,0.0119,0.0099,0.0116,0.0094,0.008,0.0094,0.0013,0.0014,-0.0118,-0.0177,-0.0274,-0.0363,-0.0369,-0.0443,-0.0459,-0.0438,-0.0435,-0.0474,-0.0474,-0.0473,-0.0473,-0.0473,-0.0473,0,0.0108,0.0105,0.0132,0.0136,0.0139,0.0155,0.0166,0.0181,0.0156,0.0173,0.0166,0.01,0.0021,-0.0101,-0.0227,-0.0314,-0.041,-0.0439,-0.0395,-0.0406,-0.0465,-0.0462,-0.0484,-0.0484,-0.0484,-0.0484,-0.0484,0,0.013,0.0147,0.0165,0.0184,0.0188,0.0207,0.0225,0.0215,0.024,0.0233,0.0255,0.019,0.0162,-0.0015,-0.0188,-0.0341,-0.0378,-0.0418,-0.0446,-0.0453,-0.0467,-0.0464,-0.0462,-0.0429,-0.0429,-0.0428,-0.0428,0,0.0174,0.0177,0.0198,0.0234,0.0261,0.0292,0.0321,0.0357,0.0357,0.038,0.0408,0.039,0.0223,0.0073,-0.0143,-0.0254,-0.0396,-0.0413,-0.0436,-0.0426,-0.0402,-0.0415,-0.0415,-0.0424,-0.0424,-0.0425,-0.0425,-0.0425,0.0207,0.0227,0.0252,0.0287,0.0321,0.0373,0.0407,0.0458,0.0514,0.0559,0.0536,0.0517,0.0334,0.0069,-0.013,-0.0352,-0.0351,-0.0427,-0.0428,-0.0429,-0.0414,-0.0391,-0.0408,-0.0408,-0.0408,-0.0408,-0.0408,0,0.0249,0.0266,0.0303,0.0346,0.0391,0.0398,0.0469,0.0518,0.06,0.064,0.0669,0.0528,0.0354,0.0132,-0.0186,-0.0369,-0.0401,-0.0429,-0.0428,-0.043,-0.0432,-0.0418,-0.0412,-0.0412,-0.0413,-0.0413,0,0,0.0273,0.0314,0.0326,0.0396,0.0426,0.049,0.0532,0.0619,0.0666,0.0731,0.0724,0.0691,0.0426,0.0205,-0.0052,-0.0237,-0.0298,-0.0277,-0.0253,-0.0223,-0.0224,-0.0405,-0.0381,0,0,0,0,0]}],[{"header":{"parameterUnit":"m.s-1","parameterCategory":2,"la1":30.2991,"la2":30.254,"lo1":-89.0895,"lo2":-89.0444,"dx":0.0017,"dy":0.0017,"nx":28,"ny":28,"refTime":"2022-11-21T15:00:00:Z","depth":"4","parameterNumber":2,"parameterNumberName":"U-component_of_CURRENTS"},"data":[0,0,0,0,0,0,0,0,0,0,0,0,0,0,0,0,0,0,0,0,0,0,0,0,0,0,0,0,0,0,0,0,0,0,0,0,0,0,0,0,0,0,0,0,0,0,0,0,0,0,0,0,0,0,0,0,0,0,0.118,0.1181,0,0.1184,0.1184,0.1183,0.1203,0.1204,0.1205,0.1206,0.1231,0.123,0.123,0,0,0,0,0,0,0,0,0,0,0,0,0,0.1124,0.1125,0.118,0.1181,0.1181,0.1184,0.1184,0.1183,0.1203,0.1204,0.1205,0.1206,0.1231,0.123,0.123,0,0,0,0,0,0,0,0,0,0,0,0,0,0.1136,0.1125,0.118,0.1195,0.1197,0.1184,0.1184,0.1183,0.1203,0.1204,0.1205,0.1207,0.1231,0.1231,0.123,0.1201,0,0,0.1229,0.1229,0,0,0,0,0,0,0,0,0.1135,0.1137,0.1192,0.1194,0.1196,0.1199,0.1173,0.1192,0.1202,0.1195,0.1206,0.1207,0.1224,0.1224,0.1215,0.1202,0.1203,0.1229,0.1229,0.1229,0.1229,0,0,0,0,0,0,0,0.1134,0.1137,0.1177,0.1193,0.1195,0.1179,0.1182,0.1176,0.1198,0.1196,0.1199,0.1206,0.1225,0.1215,0.1216,0.1204,0.1229,0.1229,0.1229,0.1229,0.1284,0.1286,0,0,0,0,0,0,0.1146,0.1136,0.1177,0.1178,0.1174,0.118,0.1183,0.1192,0.1198,0.1202,0.1205,0.1207,0.1215,0.1216,0.1217,0.127,0.1229,0.1229,0.1229,0.1283,0.1285,0.1286,0,0,0,0,0,0,0.1144,0.1149,0.1177,0.1161,0.1164,0.118,0.119,0.1192,0.1211,0.1206,0.1209,0.1226,0.1216,0.1217,0.1245,0.1268,0.1229,0.1228,0.1281,0.1283,0.1285,0.1321,0,0,0,0,0,0,0.1143,0.1149,0.1164,0.1162,0.1165,0.1189,0.1189,0.1191,0.1214,0.1218,0.1224,0.1226,0.1217,0.1245,0.1245,0.1267,0.1228,0.1279,0.1282,0.1285,0.1318,0.1325,0.133,0,0,0,0,0,0.1141,0.1155,0.1165,0.1171,0.1185,0.119,0.119,0.1202,0.1214,0.1224,0.1239,0.1228,0.1265,0.1246,0.1245,0.1268,0.1277,0.1281,0.1284,0.1315,0.1323,0.133,0,0,0,0,0,0,0.1137,0.1158,0.117,0.119,0.1201,0.1196,0.1209,0.1216,0.1231,0.1245,0.1239,0.1242,0.1274,0.1271,0.125,0.1297,0.1272,0.1276,0.1297,0.1304,0.131,0.1307,0.1228,0,0,0,0,0,0.1144,0.1164,0.1177,0.1196,0.1205,0.1211,0.1218,0.1229,0.124,0.1249,0.1254,0.1269,0.1281,0.1295,0.1298,0.1319,0.1316,0.1338,0.1344,0.1349,0.1349,0.1371,0.1378,0.1298,0.1298,0.1298,0,0,0.1149,0.1164,0.1176,0.1197,0.1206,0.1216,0.1219,0.124,0.1253,0.1248,0.1273,0.1285,0.1291,0.1317,0.1332,0.1322,0.1373,0.1354,0.1358,0.1355,0.1375,0.1383,0.139,0.1301,0.13,0.13,0,0,0.1158,0.1183,0.12,0.1212,0.1238,0.1237,0.1252,0.1264,0.1278,0.1302,0.1307,0.1336,0.1351,0.136,0.1366,0.141,0.1401,0.1423,0.1454,0.1476,0.1482,0.1487,0.1498,0.1504,0.1431,0.1431,0.1431,0,0.1165,0.1187,0.1204,0.1221,0.1235,0.1252,0.1267,0.1276,0.1296,0.1314,0.1322,0.1361,0.1368,0.1398,0.1421,0.1421,0.1433,0.1421,0.1482,0.1487,0.1492,0.1501,0.1508,0.1433,0.1433,0.1433,0.1433,0,0.1178,0.1204,0.1216,0.1242,0.1256,0.1275,0.1292,0.1312,0.1336,0.1349,0.1393,0.1404,0.1435,0.1444,0.1447,0.1492,0.1489,0.1481,0.1457,0.1502,0.151,0.1515,0.1437,0.1436,0.1435,0.1435,0,0,0.1169,0.1216,0.1223,0.1241,0.1273,0.1281,0.131,0.1336,0.1362,0.1393,0.1426,0.1461,0.1485,0.1495,0.1506,0.1526,0.1574,0.153,0.153,0.153,0.1625,0.1546,0.1544,0.1583,0.1585,0.1586,0.1617,0,0.1175,0.1211,0.1232,0.1262,0.1279,0.1306,0.1326,0.1357,0.1386,0.1421,0.1454,0.1492,0.15,0.1529,0.1553,0.1569,0.1591,0.1566,0.159,0.1591,0.1507,0.1549,0.1589,0.1621,0.1622,0.1623,0.1624,0,0.1174,0.1201,0.1236,0.1277,0.1288,0.1309,0.1351,0.1375,0.1426,0.1454,0.1504,0.1531,0.1583,0.1577,0.163,0.162,0.1633,0.1634,0.1635,0.155,0.1522,0.1568,0.1634,0.1633,0.1632,0.1632,0.1631,0,0.1149,0.1199,0.1229,0.1244,0.1292,0.1319,0.1348,0.1394,0.1421,0.1487,0.1519,0.1576,0.1617,0.1644,0.1674,0.1664,0.1714,0.1695,0.163,0.1624,0.1668,0.1662,0.1726,0.1726,0.1726,0.1726,0.1726,0,0.1133,0.1159,0.1227,0.1243,0.1279,0.132,0.1361,0.1396,0.1452,0.1483,0.1549,0.1577,0.1641,0.1679,0.169,0.1682,0.1735,0.1638,0.1629,0.1684,0.1679,0.1672,0.1665,0.1727,0.1727,0.1726,0.1726,0,0.1092,0.114,0.1178,0.1245,0.1269,0.1298,0.1366,0.139,0.1455,0.1497,0.1526,0.1602,0.1652,0.1694,0.1734,0.1697,0.1694,0.1677,0.1738,0.1732,0.1584,0.1579,0.1598,0.1596,0.1593,0.1592,0.159,0,0.107,0.109,0.1172,0.1198,0.1234,0.1286,0.1314,0.1384,0.1405,0.1494,0.1503,0.1588,0.1628,0.1614,0.1672,0.1684,0.1668,0.1652,0.1609,0.1582,0.1573,0.1571,0.1569,0.1587,0.1586,0.1586,0.1585,0,0.1026,0.107,0.1105,0.116,0.1202,0.1232,0.1282,0.1286,0.1357,0.1435,0.1444,0.1472,0.1522,0.1555,0.1583,0.1587,0.1652,0.163,0.1633,0.1593,0.1569,0.1561,0.1562,0.1578,0.1579,0.158,0.158,0,0.0996,0.1011,0.1068,0.1104,0.1154,0.1158,0.1191,0.1211,0.124,0.133,0.1334,0.1418,0.1498,0.1506,0.153,0.1534,0.151,0.1452,0.1465,0.1474,0.1422,0.1372,0.1316,0,0,0,0,0,0.0956,0.0968,0.1003,0.1032,0.1078,0.1104,0.1156,0.1187,0.1255,0.1228,0.1273,0.1311,0.1347,0.1398,0.138,0.1493,0.1525,0.1466,0.1467,0.1537,0.1546,0.1498,0,0,0,0,0,0,0.0929,0.0965,0.0979,0.0965,0.0971,0.1003,0.1032,0.108,0.1064,0.1143,0.1171,0.1241,0.13,0.1346,0.1358,0.1375,0.1351,0.1527,0.1524,0.1533,0.154,0.1547,0.1501,0,0,0,0,0]},{"header":{"parameterUnit":"m.s-1","parameterCategory":2,"la1":30.2991,"la2":30.254,"lo1":-89.0895,"lo2":-89.0444,"dx":0.0017,"dy":0.0017,"nx":28,"ny":28,"refTime":"2022-11-21T15:00:00:Z","depth":"4","parameterNumber":3,"parameterNumberName":"V-component_of_CURRENTS"},"data":[0,0,0,0,0,0,0,0,0,0,0,0,0,0,0,0,0,0,0,0,0,0,0,0,0,0,0,0,0,0,0,0,0,0,0,0,0,0,0,0,0,0,0,0,0,0,0,0,0,0,0,0,0,0,0,0,0,0,0.0024,0.0024,0,0.0049,0.005,0.005,0.0062,0.0062,0.0062,0.0061,0.0089,0.0089,0.009,0,0,0,0,0,0,0,0,0,0,0,0,0,0.0025,0.0025,0.0024,0.0024,0.0024,0.0049,0.005,0.0051,0.0062,0.0062,0.0061,0.0061,0.0088,0.0089,0.0091,0,0,0,0,0,0,0,0,0,0,0,0,0,0.0037,0.0025,0.0024,0.0031,0.0031,0.0049,0.005,0.0051,0.0062,0.0062,0.0061,0.0061,0.0088,0.0089,0.0091,0.0108,0,0,0.0095,0.0096,0,0,0,0,0,0,0,0,0.0037,0.0038,0.003,0.003,0.0031,0.005,0.006,0.0069,0.0062,0.0054,0.0061,0.0061,0.0074,0.0077,0.0086,0.011,0.0111,0.0095,0.0096,0.0097,0.0097,0,0,0,0,0,0,0,0.0036,0.0037,0.0037,0.003,0.0031,0.0046,0.0047,0.0062,0.0068,0.0054,0.0054,0.0053,0.0075,0.0085,0.0087,0.0111,0.0095,0.0097,0.0098,0.0098,0.0143,0.0144,0,0,0,0,0,0,0.0025,0.0036,0.0036,0.0037,0.003,0.0046,0.0047,0.0046,0.0068,0.007,0.0053,0.0053,0.0083,0.0085,0.0088,0.0108,0.0097,0.0098,0.0099,0.0143,0.0143,0.0144,0,0,0,0,0,0,0.0025,0.0025,0.0035,0.0035,0.0037,0.0046,0.0045,0.0047,0.0055,0.0067,0.0069,0.0058,0.0082,0.0086,0.0103,0.0109,0.0099,0.01,0.0143,0.0143,0.0144,0.015,0,0,0,0,0,0,0.0025,0.0025,0.0026,0.0034,0.0036,0.0047,0.0045,0.0048,0.0053,0.0053,0.0071,0.0074,0.0082,0.0101,0.0105,0.0111,0.0101,0.0142,0.0143,0.0143,0.015,0.0151,0.0152,0,0,0,0,0,0.0025,0.0031,0.0026,0.0026,0.0035,0.0047,0.005,0.0057,0.0053,0.0062,0.0072,0.0073,0.0107,0.0103,0.0107,0.0114,0.0142,0.0143,0.0143,0.0149,0.0151,0.0152,0,0,0,0,0,0,0.0037,0.0032,0.0027,0.0032,0.0036,0.0048,0.0055,0.0056,0.0072,0.0071,0.0081,0.0085,0.0103,0.0107,0.0102,0.0128,0.0123,0.0125,0.0126,0.0128,0.0129,0.0132,0.0103,0,0,0,0,0,0.0036,0.0036,0.0036,0.004,0.0041,0.0046,0.0052,0.0055,0.0066,0.0072,0.0084,0.0095,0.011,0.0117,0.0132,0.0148,0.0133,0.0153,0.0155,0.0156,0.0161,0.0139,0.0138,0.0146,0.0146,0.0146,0,0,0.0041,0.0039,0.0039,0.0042,0.0046,0.0058,0.005,0.0058,0.0073,0.0073,0.0098,0.0103,0.0116,0.0135,0.0142,0.0138,0.0143,0.0156,0.0157,0.0163,0.0139,0.0138,0.0137,0.0147,0.0146,0.0146,0,0,0.0056,0.0049,0.0054,0.0058,0.006,0.0067,0.0067,0.0076,0.0083,0.0104,0.0106,0.0114,0.0139,0.0148,0.0156,0.0172,0.0152,0.0172,0.0181,0.0159,0.0158,0.0157,0.0125,0.0121,0.0171,0.0171,0.0171,0,0.0063,0.0068,0.006,0.0068,0.0075,0.007,0.0084,0.0095,0.011,0.0118,0.0113,0.0141,0.0148,0.0169,0.0172,0.0175,0.0152,0.0174,0.0159,0.0158,0.0157,0.0125,0.012,0.0171,0.0171,0.0171,0.0171,0,0.0081,0.0086,0.0091,0.0099,0.0107,0.0119,0.0125,0.0136,0.014,0.0147,0.0164,0.0169,0.0182,0.0184,0.0185,0.0183,0.0165,0.0163,0.0154,0.0156,0.0122,0.0118,0.0172,0.0172,0.0172,0.0172,0,0,0.0099,0.0103,0.0106,0.0115,0.0124,0.0137,0.0156,0.0174,0.0189,0.0193,0.0209,0.0223,0.021,0.0218,0.0212,0.0194,0.016,0.0173,0.0171,0.0138,0.0096,0.0079,0.0072,0.0147,0.0146,0.0146,0.0071,0,0.0118,0.0139,0.0137,0.0166,0.018,0.0181,0.0203,0.0216,0.0224,0.0238,0.023,0.0244,0.0227,0.0228,0.0207,0.018,0.0149,0.018,0.0102,0.01,0.0082,0.0067,0.0145,0.0068,0.0066,0.0066,0.0065,0,0.014,0.0152,0.0178,0.0201,0.0207,0.0225,0.0254,0.0273,0.0283,0.0285,0.0282,0.0273,0.0258,0.0238,0.0179,0.0195,0.0143,0.0114,0.011,0.0092,0.0075,0.0068,0.0056,0.0057,0.0058,0.0058,0.0059,0,0.0163,0.0184,0.0207,0.0214,0.0237,0.0252,0.0269,0.0286,0.031,0.0309,0.0317,0.0292,0.0283,0.0223,0.016,0.0162,0.0084,0.0079,0.0012,0.001,0.0045,0.0047,0.0022,0.0022,0.0022,0.0022,0.0023,0,0.0187,0.0208,0.0218,0.0233,0.0266,0.0273,0.031,0.0321,0.0342,0.037,0.0339,0.0346,0.0277,0.0228,0.0161,0.0072,0.0078,0.001,-0.0009,0.0048,0.0051,0.004,0.0043,0.002,0.002,0.0021,0.0021,0,0.0208,0.0214,0.0244,0.0268,0.0277,0.0302,0.0341,0.0371,0.0379,0.0411,0.0411,0.0383,0.0313,0.0236,0.0138,0.0076,-0.0006,-0.0044,0.0016,0.0002,-0.0069,-0.0064,-0.0127,-0.0128,-0.0129,-0.013,-0.0131,0,0.0221,0.0236,0.0267,0.0288,0.0298,0.0332,0.0362,0.0387,0.0419,0.0435,0.0453,0.0398,0.0362,0.0216,0.0123,-0.002,-0.004,-0.0094,-0.0077,-0.0071,-0.0084,-0.0078,-0.0072,-0.0132,-0.0133,-0.0133,-0.0133,0,0.0246,0.0255,0.0278,0.0315,0.0347,0.0386,0.0426,0.0453,0.0483,0.0491,0.0486,0.0414,0.033,0.0216,0.01,0.0002,-0.0061,-0.0105,-0.0104,-0.0088,-0.0078,-0.0089,-0.0082,-0.0137,-0.0136,-0.0136,-0.0136,0,0.0265,0.0283,0.031,0.0342,0.0385,0.0428,0.0447,0.0479,0.0508,0.0524,0.0517,0.0432,0.0383,0.0226,0.0125,0.002,-0.0007,-0.0043,-0.0045,-0.0042,0.0006,0.0032,-0.0013,0,0,0,0,0,0.0282,0.0302,0.0336,0.0375,0.0417,0.0442,0.0489,0.0505,0.0528,0.0533,0.053,0.0453,0.0303,0.024,0.0133,0.0094,-0.0034,-0.0038,-0.0078,-0.0156,-0.0152,-0.0111,0,0,0,0,0,0,0.0295,0.0328,0.0339,0.0394,0.0424,0.0476,0.0507,0.0523,0.0524,0.053,0.0455,0.0418,0.0275,0.0368,0.013,0.0098,0.0054,-0.0106,-0.0109,-0.0158,-0.0155,-0.0151,-0.0108,0,0,0,0,0]}]]